Location: Bakov nad Jizerou
(50.4784°N, 14.9394°E)
Time: 09:17:18
(UTC+00:00)

Cosmos 1980 Rocket - Pass Details

Date: 16 June 2021
Orbit: 830 x 849 km, 71.0° (Epoch: 04 August)

Event Time Altitude Azimuth Distance (km) Brightness Sun altitude
Rises 20:19:25 0° 241° (WSW) 3,383 5.4 -8.0°
Reaches altitude 10° 20:22:07 10° 251° (WSW) 2,449 4.8 -8.2°
Maximum altitude 20:27:07 32° 314° (NW) 1,400 4.3 -8.7°
Drops below altitude 10° 20:32:08 10° 17° (NNE) 2,452 5.2 -9.1°
Sets 20:34:51 0° 28° (NNE) 3,387 5.8 -9.4°
